Home > Weather > Victoria > Past weeks

Flag for Seychelles Past Weather in Victoria, Seychelles — Yesterday and Last 2 Weeks

Now
82 °F

Scattered clouds.


Feels Like: 87 °F
Forecast: 73 / 78 °F
Wind: 18 mph from Southeast

Location: National Airport

Current Time: Jul 24, 2016 at 2:45:07 PM

Latest Report: Jul 24, 2016 at 2:00 PM


Visibility: N/A

Pressure: 29.83 "Hg

Humidity: 70%

Dew Point: 72 °F

Location of VictoriaLocation

Past Weather in Victoria — Graph

°F

Victoria Temperature Yesterday

Maximum temperature yesterday: 84 °F (at 12:00 PM)
Minimum temperature yesterday: 77 °F (at 12:00 AM)
Average temperature yesterday: 79 °F

High & Low Weather Summary for the Past Weeks

 TemperatureHumidityPressure
High86 °F (Jul 14, 1:00 PM)94% (Jul 14, 9:00 PM)29.98 "Hg (Jul 14, 9:00 PM)
Low72 °F (Jul 20, 6:00 AM)52% (Jul 14, 1:00 PM)29.83 "Hg (Jul 14, 2:00 PM)
Average79 °F77%29.90 "Hg
* Reported Jul 9 1:00 PM — Jul 24 1:00 PM, Victoria, Weather by CustomWeather, © 2016

Note: Actual official high and low records may vary slightly from our data, if they occured in-between our weather recording intervals... More about our weather records

Advertising

Victoria Weather History for the Previous 24 Hours

Scroll right to see more
 ConditionsComfort  
Time TempWeatherWind HumidityBarometerVisibility
1:00 PM
Sun, Jul 24
82 °FScattered clouds.18 mph74%29.83 "HgN/A
12:00 PM82 °FPassing clouds.21 mph70%29.86 "HgN/A
11:00 AM82 °FScattered clouds.20 mph70%29.89 "HgN/A
10:00 AM79 °FPartly sunny.15 mph79%29.89 "HgN/A
9:00 AM81 °FPartly sunny.14 mph79%29.89 "HgN/A
8:00 AM79 °FSprinkles. Partly sunny.14 mph84%29.89 "HgN/A
7:00 AM77 °FScattered clouds.10 mph89%29.86 "HgN/A
6:00 AM77 °FSprinkles. Passing clouds.14 mph83%29.86 "HgN/A
5:00 AM77 °FPassing clouds.13 mph83%29.83 "HgN/A
4:00 AM77 °FPassing clouds.13 mph83%29.83 "HgN/A
3:00 AM77 °FPassing clouds.9 mph83%29.83 "HgN/A
2:00 AM77 °FPassing clouds.10 mph83%29.86 "HgN/A
1:00 AM79 °FPassing clouds.13 mph79%29.89 "HgN/A
12:00 AM79 °FPassing clouds.12 mph79%29.89 "HgN/A
11:00 PM
Sat, Jul 23
79 °FPassing clouds.10 mph79%29.89 "HgN/A
10:00 PM79 °FPassing clouds.12 mph79%29.89 "HgN/A
9:00 PM79 °FPassing clouds.10 mph79%29.89 "HgN/A
8:00 PM79 °FPassing clouds.12 mph79%29.89 "HgN/A
7:00 PM79 °FPassing clouds.12 mph79%29.86 "HgN/A
6:00 PM79 °FScattered clouds.15 mph79%29.86 "HgN/A
5:00 PM81 °FPassing clouds.14 mph74%29.83 "HgN/A
4:00 PM81 °FScattered clouds.14 mph74%29.83 "HgN/A
3:00 PM84 °FScattered clouds.15 mph70%29.83 "HgN/A
2:00 PM84 °FPartly sunny.14 mph70%29.86 "HgN/A
Weather by CustomWeather, © 2016

See weather overviewHow to use our weather pages